Location: Kott?ru
(16.6209°N, 80.6208°E)
Time: 21:06:06
(UTC+00:00)

USA 234 - Pass Details

Date: 18 September 2020
Orbit: 1102 x 1106 km, 123.0° (Epoch: 16 October)

Event Time Altitude Azimuth Distance (km) Brightness Sun altitude
Rises 23:23:05 0° 135° (SE) 3,907 6.7 -15.9°
Reaches altitude 10° 23:25:35 10° 132° (SE) 2,950 6.1 -15.3°
Maximum altitude 23:32:02 67° 51° (NE) 1,180 3.6 -13.8°
Drops below altitude 10° 23:38:29 10° 330° (NNW) 2,952 5.3 -12.2°
Sets 23:40:58 0° 328° (NNW) 3,911 5.9 -11.6°
